FW8481 Weather Reports


Display with metric or nautical units.
time (UTC)temp
F
wind
direction
speed
MPH
gust
MPH
rain 1hr
in
rain 24hr
in
rain mn
in
humidity
%
barometer
mb
20240620023023 66 192 1.0 3.0 0.00 0.00 0.00 61 1021.7
20240620022517 66 153 1.0 3.0 0.00 0.00 0.00 61 1021.5
20240620022020 66 129 1.0 3.0 0.00 0.00 0.00 60 1021.4
20240620021527 66 153 1.0 3.0 0.00 0.00 0.00 60 1021.3
20240620021019 67 158 0.0 3.0 0.00 0.00 0.00 59 1021.3
20240620020521 67 214 1.0 3.0 0.00 0.00 0.00 58 1021.1
20240620020026 68 158 0.0 3.0 0.00 0.00 0.00 58 1021.4
20240620015519 68 127 1.0 3.0 0.00 0.00 0.00 58 1021.5
20240620015019 68 124 1.0 3.0 0.00 0.00 0.00 57 1021.4
20240620014525 69 118 1.0 3.0 0.00 0.00 0.00 57 1021.2
20240620014019 69 158 0.0 2.0 0.00 0.00 0.00 57 1020.9
20240620013519 69 0 0.0 3.0 0.00 0.00 0.00 57 1020.7
20240620013029 69 229 0.0 3.0 0.00 0.00 0.00 57 1020.6
20240620012518 69 217 0.0 3.0 0.00 0.00 0.00 56 1020.5
20240620012020 69 181 1.0 4.0 0.00 0.00 0.00 55 1020.5
20240620011523 70 199 0.0 5.0 0.00 0.00 0.00 55 1020.5
20240620011017 70 0 1.0 5.0 0.00 0.00 0.00 56 1020.5
20240620010523 70 127 0.0 3.0 0.00 0.00 0.00 55 1020.5
20240620010022 70 0 0.0 3.0 0.00 0.00 0.00 56 1020.3
20240620005520 69 217 0.0 3.0 0.00 0.00 0.00 56 1020.2
20240620005020 69 119 1.0 3.0 0.00 0.00 0.00 57 1020.2
20240620004523 69 217 0.0 5.0 0.00 0.00 0.00 57 1020.3
20240620004021 68 146 0.0 5.0 0.00 0.00 0.00 57 1020.3
20240620003520 68 115 1.0 5.0 0.00 0.00 0.00 56 1020.1
20240620003023 69 98 1.0 5.0 0.00 0.00 0.00 56 1020.1
20240620002520 69 103 1.0 5.0 0.00 0.00 0.00 56 1020.1
20240620002020 69 124 1.0 5.0 0.00 0.00 0.00 55 1020.1
20240620001523 70 158 1.0 5.0 0.00 0.00 0.00 54 1020.1
20240620001020 70 99 2.0 6.0 0.00 0.00 0.00 53 1019.9
20240620000518 71 221 1.0 6.0 0.00 0.00 0.00 53 1019.9
20240620000024 71 0 1.0 4.0 0.00 0.00 0.00 53 1020.0
20240619235520 71 207 2.0 5.0 0.00 0.00 0.00 52 1020.0
20240619235017 71 158 2.0 5.0 0.00 0.00 0.00 53 1020.0
20240619234525 71 136 2.0 5.0 0.00 0.00 0.00 52 1019.8
20240619234020 72 144 1.0 8.0 0.00 0.00 0.00 52 1019.8
20240619233521 71 172 2.0 8.0 0.00 0.00 0.00 52 1019.7
20240619233021 71 124 2.0 6.0 0.00 0.00 0.00 51 1019.7
20240619232522 71 153 1.0 6.0 0.00 0.00 0.00 52 1019.9
20240619232020 72 222 1.0 6.0 0.00 0.00 0.00 52 1020.0
20240619231525 73 113 2.0 6.0 0.00 0.00 0.00 50 1020.0
20240619231019 73 195 0.0 7.0 0.00 0.00 0.00 49 1020.0
20240619230520 74 163 2.0 7.0 0.00 0.00 0.00 49 1019.8
20240619230025 74 333 2.0 6.0 0.00 0.00 0.00 49 1019.7
20240619225519 74 126 2.0 9.0 0.00 0.00 0.00 49 1019.8
20240619225019 74 126 4.0 9.0 0.00 0.00 0.00 49 1019.8
20240619224523 73 129 2.0 9.0 0.00 0.00 0.00 49 1019.8
20240619224021 73 81 2.0 5.0 0.00 0.00 0.00 49 1019.8
20240619223521 74 113 1.0 7.0 0.00 0.00 0.00 49 1019.8
20240619223025 73 151 1.0 7.0 0.00 0.00 0.00 48 1019.7
20240619222517 74 134 2.0 6.0 0.00 0.00 0.00 48 1019.6
20240619222021 74 91 1.0 6.0 0.00 0.00 0.00 46 1019.6
20240619221522 74 91 2.0 6.0 0.00 0.00 0.00 46 1019.5
20240619221017 75 115 1.0 7.0 0.00 0.00 0.00 46 1019.6
20240619220522 75 160 3.0 7.0 0.00 0.00 0.00 46 1019.8
20240619220023 76 131 1.0 7.0 0.00 0.00 0.00 46 1019.8
20240619215520 75 71 2.0 7.0 0.00 0.00 0.00 44 1019.8
20240619215020 75 120 1.0 9.0 0.00 0.00 0.00 47 1019.9
20240619214527 74 83 5.0 9.0 0.00 0.00 0.00 47 1019.9
20240619214017 74 65 2.0 6.0 0.00 0.00 0.00 49 1020.0
20240619213520 73 108 2.0 7.0 0.00 0.00 0.00 48 1020.0
20240619213026 73 96 2.0 10.0 0.00 0.00 0.00 48 1020.1
20240619212520 73 112 3.0 10.0 0.00 0.00 0.00 48 1020.2
20240619212019 73 60 2.0 7.0 0.00 0.00 0.00 50 1020.3
20240619211530 72 104 2.0 6.0 0.00 0.00 0.00 51 1020.5
20240619211029 72 94 3.0 7.0 0.00 0.00 0.00 49 1020.6
20240619210521 71 89 2.0 7.0 0.00 0.00 0.00 51 1020.9
20240619210024 71 44 2.0 9.0 0.00 0.00 0.00 50 1020.9
20240619205520 71 60 2.0 12.0 0.00 0.00 0.00 52 1021.0
20240619205020 71 89 3.0 12.0 0.00 0.00 0.00 51 1021.0
20240619204519 71 91 4.0 12.0 0.00 0.00 0.00 50 1021.2
20240619204019 71 92 2.0 4.0 0.00 0.00 0.00 49 1021.4
20240619203524 70 132 1.0 5.0 0.00 0.00 0.00 50 1021.6
20240619203024 70 116 1.0 5.0 0.00 0.00 0.00 50 1021.7
20240619202521 71 108 1.0 5.0 0.00 0.00 0.00 48 1021.9
20240619202026 71 126 2.0 5.0 0.00 0.00 0.00 48 1022.0
20240619201525 71 143 1.0 6.0 0.00 0.00 0.00 47 1021.9
20240619201024 72 226 1.0 6.0 0.00 0.00 0.00 46 1022.0
20240619200520 72 109 1.0 7.0 0.00 0.00 0.00 45 1022.0
20240619200023 72 0 2.0 7.0 0.00 0.00 0.00 48 1022.2
20240619195520 72 98 2.0 10.0 0.00 0.00 0.00 46 1022.2
20240619195021 72 114 3.0 10.0 0.00 0.00 0.00 46 1022.2
20240619194549 72 143 1.0 9.0 0.00 0.00 0.00 47 1022.3
20240619194021 71 133 3.0 9.0 0.00 0.00 0.00 47 1022.4
20240619193520 71 135 1.0 7.0 0.00 0.00 0.00 48 1022.7
20240619193026 71 137 2.0 7.0 0.00 0.00 0.00 47 1022.7
20240619192520 71 114 2.0 7.0 0.00 0.00 0.00 49 1022.8
20240619192020 70 99 3.0 7.0 0.00 0.00 0.00 47 1022.9
20240619191530 70 119 1.0 5.0 0.00 0.00 0.00 47 1023.0
20240619191020 70 115 2.0 5.0 0.00 0.00 0.00 50 1023.2
20240619190521 69 162 2.0 9.0 0.00 0.00 0.00 49 1023.2
20240619190024 69 103 1.0 9.0 0.00 0.00 0.00 50 1023.4
20240619185521 68 82 2.0 5.0 0.00 0.00 0.00 50 1023.5
20240619185019 67 0 1.0 4.0 0.00 0.00 0.00 54 1023.6
20240619184539 67 233 1.0 6.0 0.00 0.00 0.00 52 1023.7
20240619184018 66 201 1.0 6.0 0.00 0.00 0.00 52 1023.9
20240619183520 66 122 2.0 7.0 0.00 0.00 0.00 52 1023.8
20240619183026 65 148 2.0 7.0 0.00 0.00 0.00 54 1024.1
20240619182521 65 111 0.0 5.0 0.00 0.00 0.00 53 1024.3
20240619182021 64 128 2.0 5.0 0.00 0.00 0.00 55 1024.3
20240619181521 64 113 1.0 4.0 0.00 0.00 0.00 54 1024.5
20240619181020 65 128 1.0 4.0 0.00 0.00 0.00 55 1024.6
20240619180521 65 0 0.0 3.0 0.00 0.00 0.00 56 1024.6
20240619180022 65 210 1.0 3.0 0.00 0.00 0.00 55 1024.6
20240619175520 65 190 0.0 3.0 0.00 0.00 0.00 56 1024.7
20240619175020 64 0 0.0 2.0 0.00 0.00 0.00 57 1024.7
20240619174525 64 113 0.0 3.0 0.00 0.00 0.00 58 1024.8
20240619174022 63 247 1.0 3.0 0.00 0.00 0.00 58 1024.8
20240619173521 63 129 0.0 3.0 0.00 0.00 0.00 58 1025.0
20240619173024 63 0 1.0 5.0 0.00 0.00 0.00 59 1025.0
20240619172521 63 98 0.0 5.0 0.00 0.00 0.00 60 1025.1
20240619172020 63 91 2.0 5.0 0.00 0.00 0.00 58 1025.1
20240619171531 62 0 0.0 3.0 0.00 0.00 0.00 61 1025.0
20240619171021 62 119 1.0 3.0 0.00 0.00 0.00 61 1025.1
20240619170521 62 132 1.0 4.0 0.00 0.00 0.00 61 1025.2
20240619170032 62 143 1.0 4.0 0.00 0.00 0.00 63 1025.3
20240619165521 61 150 1.0 4.0 0.00 0.00 0.00 62 1025.3
20240619165020 61 203 0.0 4.0 0.00 0.00 0.00 64 1025.3
20240619164524 60 0 0.0 4.0 0.00 0.00 0.00 63 1025.4
20240619164027 60 140 1.0 4.0 0.00 0.00 0.00 62 1025.4
20240619163519 60 0 0.0 6.0 0.00 0.00 0.00 62 1025.4
20240619163048 60 124 0.0 6.0 0.00 0.00 0.00 61 1025.5
20240619162520 60 86 2.0 5.0 0.00 0.00 0.00 55 1025.5
20240619162022 60 310 1.0 2.0 0.00 0.00 0.00 53 1025.5
20240619161533 60 307 0.0 1.0 0.00 0.00 0.00 52 1025.4
20240619161018 60 0 0.0 1.0 0.00 0.00 0.00 53 1025.4
20240619160521 60 0 0.0 1.0 0.00 0.00 0.00 54 1025.5
20240619160022 59 0 0.0 2.0 0.00 0.00 0.00 54 1025.6
20240619155520 59 0 0.0 3.0 0.00 0.00 0.00 53 1025.5
20240619155021 59 304 0.0 3.0 0.00 0.00 0.00 54 1025.6
20240619154521 59 278 0.0 3.0 0.00 0.00 0.00 53 1025.6
20240619154018 59 292 1.0 3.0 0.00 0.00 0.00 54 1025.5
20240619153520 59 320 0.0 2.0 0.00 0.00 0.00 53 1025.5
20240619153035 59 284 0.0 2.0 0.00 0.00 0.00 55 1025.6
20240619152519 59 259 0.0 3.0 0.00 0.00 0.00 54 1025.7
20240619152020 58 330 1.0 3.0 0.00 0.00 0.00 54 1025.6
20240619151530 58 282 0.0 3.0 0.00 0.00 0.00 54 1025.7
20240619151018 59 285 0.0 1.0 0.00 0.00 0.00 53 1025.8
20240619150520 58 293 0.0 1.0 0.00 0.00 0.00 54 1025.7
20240619150031 58 337 0.0 1.0 0.00 0.00 0.00 54 1025.7
20240619145518 58 333 0.0 2.0 0.00 0.00 0.00 53 1025.8
20240619145021 58 293 1.0 2.0 0.00 0.00 0.00 53 1025.8
20240619144532 58 0 1.0 3.0 0.00 0.00 0.00 54 1025.7
20240619144020 58 304 1.0 3.0 0.00 0.00 0.00 53 1025.9
20240619143521 57 295 1.0 3.0 0.00 0.00 0.00 54 1025.9
20240619143024 57 1 1.0 3.0 0.00 0.00 0.00 52 1025.9
20240619142518 57 321 1.0 3.0 0.00 0.00 0.00 53 1025.9
20240619142018 57 345 1.0 2.0 0.00 0.00 0.00 54 1025.8
20240619141522 57 285 1.0 3.0 0.00 0.00 0.00 53 1025.9
20240619141020 57 6 0.0 3.0 0.00 0.00 0.00 55 1025.9
20240619140520 57 336 1.0 4.0 0.00 0.00 0.00 53 1025.9
20240619140022 57 312 2.0 4.0 0.00 0.00 0.00 51 1025.9
20240619135520 57 359 1.0 3.0 0.00 0.00 0.00 52 1025.8
20240619135019 57 9 1.0 4.0 0.00 0.00 0.00 52 1025.8
20240619134521 57 337 2.0 4.0 0.00 0.00 0.00 52 1025.7
20240619134021 57 357 1.0 3.0 0.00 0.00 0.00 52 1025.6
20240619133520 57 315 1.0 4.0 0.00 0.00 0.00 51 1025.7
20240619133023 57 342 1.0 4.0 0.00 0.00 0.00 51 1025.7
20240619132520 57 300 0.0 4.0 0.00 0.00 0.00 52 1025.6
20240619132018 56 311 0.0 4.0 0.00 0.00 0.00 51 1025.5
20240619131521 56 294 1.0 4.0 0.00 0.00 0.00 50 1025.5
20240619131024 56 293 1.0 4.0 0.00 0.00 0.00 50 1025.4
20240619130519 57 314 1.0 4.0 0.00 0.00 0.00 51 1025.4
20240619130024 57 335 0.0 2.0 0.00 0.00 0.00 51 1025.4
20240619125519 56 285 0.0 1.0 0.00 0.00 0.00 52 1025.4
20240619125019 56 295 0.0 1.0 0.00 0.00 0.00 53 1025.3
20240619124526 56 0 0.0 1.0 0.00 0.00 0.00 54 1025.4
20240619124019 56 291 0.0 0.0 0.00 0.00 0.00 53 1025.2
20240619123519 56 0 0.0 0.0 0.00 0.00 0.00 55 1025.3
20240619123027 56 0 0.0 0.0 0.00 0.00 0.00 56 1025.2
20240619122519 55 0 0.0 0.0 0.00 0.00 0.00 51 1025.2
20240619122018 55 0 0.0 0.0 0.00 0.00 0.00 50 1025.1
20240619121529 55 0 0.0 0.0 0.00 0.00 0.00 51 1025.0
20240619121020 55 0 0.0 0.0 0.00 0.00 0.00 51 1025.0
20240619120521 55 0 0.0 0.0 0.00 0.00 0.00 50 1024.9
20240619120031 55 0 0.0 0.0 0.00 0.00 0.00 50 1025.0
20240619115523 55 0 0.0 0.0 0.00 0.00 0.00 50 1024.9
20240619115020 55 0 0.0 0.0 0.00 0.00 0.00 51 1024.8
20240619114521 55 0 0.0 0.0 0.00 0.00 0.00 51 1024.8
20240619114019 55 0 0.0 0.0 0.00 0.00 0.00 51 1024.6
20240619113519 55 0 0.0 0.0 0.00 0.00 0.00 52 1024.6
20240619113023 55 0 0.0 0.0 0.00 0.00 0.00 52 1024.6
20240619112518 55 0 0.0 0.0 0.00 0.00 0.00 55 1024.4
20240619112020 55 0 0.0 0.0 0.00 0.00 0.00 53 1024.4
20240619111531 55 0 0.0 0.0 0.00 0.00 0.00 54 1024.3
20240619111019 55 0 0.0 0.0 0.00 0.00 0.00 55 1024.2
20240619110520 54 0 0.0 0.0 0.00 0.00 0.00 56 1023.9
20240619110022 54 0 0.0 0.0 0.00 0.00 0.00 53 1023.8
20240619105519 55 0 0.0 0.0 0.00 0.00 0.00 56 1023.8
20240619105019 55 0 0.0 0.0 0.00 0.00 0.00 56 1023.7
20240619104523 55 0 0.0 1.0 0.00 0.00 0.00 55 1023.5
20240619104019 54 0 0.0 1.0 0.00 0.00 0.00 53 1023.5
20240619103524 54 224 0.0 1.0 0.00 0.00 0.00 55 1023.4
20240619103023 54 0 0.0 0.0 0.00 0.00 0.00 55 1023.2
20240619102521 54 0 0.0 0.0 0.00 0.00 0.00 50 1023.0
20240619102018 54 0 0.0 0.0 0.00 0.00 0.00 51 1023.0
20240619101529 54 0 0.0 0.0 0.00 0.00 0.00 50 1023.0
20240619101018 54 0 0.0 0.0 0.00 0.00 0.00 52 1022.9
20240619100518 54 0 0.0 0.0 0.00 0.00 0.00 49 1022.7
20240619100024 54 0 0.0 1.0 0.00 0.00 0.00 49 1022.8
20240619095522 54 0 0.0 1.0 0.00 0.00 0.00 49 1022.7
20240619095020 54 0 0.0 1.0 0.00 0.00 0.00 49 1022.7
20240619094519 53 0 0.0 1.0 0.00 0.00 0.00 49 1022.7
20240619094050 53 0 0.0 0.0 0.00 0.00 0.00 49 1022.6
20240619093518 53 0 0.0 0.0 0.00 0.00 0.00 52 1022.6
20240619093025 54 0 0.0 0.0 0.00 0.00 0.00 48 1022.5
20240619092522 54 0 0.0 0.0 0.00 0.00 0.00 49 1022.5
20240619092020 54 0 0.0 0.0 0.00 0.00 0.00 47 1022.4
20240619091523 54 0 0.0 0.0 0.00 0.00 0.00 47 1022.3
20240619091021 55 0 0.0 0.0 0.00 0.00 0.00 47 1022.3
20240619090519 55 0 0.0 0.0 0.00 0.00 0.00 49 1022.4
20240619090021 55 0 0.0 0.0 0.00 0.00 0.00 48 1022.4
20240619085517 55 0 0.0 0.0 0.00 0.00 0.00 49 1022.3
20240619085019 56 0 0.0 0.0 0.00 0.00 0.00 45 1022.3
20240619084521 56 0 0.0 0.0 0.00 0.00 0.00 45 1022.4
20240619084023 56 0 0.0 0.0 0.00 0.00 0.00 45 1022.4
20240619083518 56 155 0.0 0.0 0.00 0.00 0.00 44 1022.4
20240619083020 56 0 0.0 0.0 0.00 0.00 0.00 44 1022.5
20240619082519 56 0 0.0 0.0 0.00 0.00 0.00 43 1022.3
20240619082018 56 0 0.0 0.0 0.00 0.00 0.00 43 1022.4
20240619081527 56 0 0.0 0.0 0.00 0.00 0.00 43 1022.5
20240619081023 57 0 0.0 0.0 0.00 0.00 0.00 43 1022.5
20240619080519 57 0 0.0 0.0 0.00 0.00 0.00 42 1022.5
20240619080024 57 0 0.0 0.0 0.00 0.00 0.00 41 1022.6
20240619075520 58 0 0.0 0.0 0.00 0.00 0.00 41 1022.6
20240619075018 58 0 0.0 0.0 0.00 0.00 0.00 40 1022.7
20240619074519 59 0 0.0 0.0 0.00 0.00 0.00 39 1022.8
20240619074019 59 0 0.0 2.0 0.00 0.00 0.00 38 1022.7
20240619073520 59 0 0.0 2.0 0.00 0.00 0.00 38 1022.9
20240619073019 60 0 0.0 2.0 0.00 0.00 0.00 37 1022.9
20240619072520 60 0 0.0 1.0 0.00 0.00 0.00 37 1022.8
20240619072018 60 0 0.0 1.0 0.00 0.00 0.00 36 1022.9
20240619071523 61 0 0.0 1.0 0.00 0.00 0.00 36 1023.0
20240619071020 61 0 0.0 1.0 0.00 0.00 0.00 35 1023.0
20240619070522 61 120 0.0 3.0 0.00 0.00 0.00 34 1023.1
20240619070021 61 0 0.0 7.0 0.00 0.00 0.00 34 1023.1
20240619065519 61 129 1.0 7.0 0.00 0.00 0.00 33 1023.1
20240619065019 61 96 0.0 5.0 0.00 0.00 0.00 33 1023.2
20240619064523 61 109 2.0 5.0 0.00 0.00 0.00 32 1023.1
20240619064019 62 104 0.0 3.0 0.00 0.00 0.00 31 1023.1
20240619063538 62 120 0.0 5.0 0.00 0.00 0.00 32 1023.0
20240619063019 62 0 1.0 5.0 0.00 0.00 0.00 32 1023.0
20240619062520 61 0 0.0 2.0 0.00 0.00 0.00 33 1023.0
20240619062019 61 0 0.0 2.0 0.00 0.00 0.00 33 1022.9
20240619061522 61 0 0.0 2.0 0.00 0.00 0.00 33 1023.0
20240619061018 61 0 0.0 1.0 0.00 0.00 0.00 35 1022.9
20240619060520 61 0 0.0 1.0 0.00 0.00 0.00 35 1022.9
20240619060025 61 0 0.0 1.0 0.00 0.00 0.00 35 1022.8
20240619055518 61 0 0.0 1.0 0.00 0.00 0.00 35 1022.8
20240619055020 61 0 0.0 2.0 0.00 0.00 0.00 35 1022.9
20240619054520 61 0 0.0 2.0 0.00 0.00 0.00 35 1022.9
20240619054020 61 0 0.0 2.0 0.00 0.00 0.00 34 1022.8
20240619053518 62 0 0.0 1.0 0.00 0.00 0.00 36 1022.7
20240619053029 62 0 0.0 1.0 0.00 0.00 0.00 37 1022.7
20240619052520 62 122 0.0 1.0 0.00 0.00 0.00 36 1022.8
20240619052018 63 0 0.0 3.0 0.00 0.00 0.00 35 1022.8
20240619051521 63 129 0.0 3.0 0.00 0.00 0.00 34 1022.7
20240619051023 63 87 0.0 3.0 0.00 0.00 0.00 31 1022.6
20240619050520 63 0 1.0 2.0 0.00 0.00 0.00 31 1022.5
20240619050023 63 0 0.0 1.0 0.00 0.00 0.00 31 1022.6
20240619045518 63 0 0.0 5.0 0.00 0.00 0.00 31 1022.1
20240619045018 63 0 0.0 5.0 0.00 0.00 0.00 30 1021.8
20240619044531 63 113 0.0 4.0 0.00 0.00 0.00 31 1022.1
20240619044019 64 0 0.0 7.0 0.00 0.00 0.00 30 1021.9
20240619043519 64 101 1.0 7.0 0.00 0.00 0.00 30 1021.6
20240619043035 64 113 2.0 6.0 0.00 0.00 0.00 29 1021.7
20240619042520 64 124 1.0 7.0 0.00 0.00 0.00 30 1021.6
20240619042018 64 58 3.0 7.0 0.00 0.00 0.00 29 1021.4
20240619041520 64 39 2.0 5.0 0.00 0.00 0.00 29 1021.3
20240619041019 65 106 1.0 4.0 0.00 0.00 0.00 30 1021.0
20240619040520 65 56 1.0 4.0 0.00 0.00 0.00 29 1020.9
20240619040023 65 79 2.0 4.0 0.00 0.00 0.00 30 1020.8
20240619035529 65 106 2.0 3.0 0.00 0.00 0.00 30 1020.7
20240619035018 65 112 1.0 3.0 0.00 0.00 0.00 30 1020.6
20240619034525 65 109 0.0 3.0 0.00 0.00 0.00 30 1020.4
20240619034020 65 115 0.0 4.0 0.00 0.00 0.00 29 1020.2
20240619033519 65 124 1.0 4.0 0.00 0.00 0.00 30 1020.0
20240619033022 65 75 1.0 4.0 0.00 0.00 0.00 30 1019.6
20240619032520 65 121 0.0 2.0 0.00 0.00 0.00 30 1019.6
20240619032018 65 124 0.0 1.0 0.00 0.00 0.00 30 1019.4
20240619031522 65 0 0.0 4.0 0.00 0.00 0.00 30 1019.3
20240619031024 65 106 1.0 4.0 0.00 0.00 0.00 29 1019.1
20240619030521 65 0 0.0 1.0 0.00 0.00 0.00 30 1019.1
20240619030024 65 0 0.0 5.0 0.00 0.00 0.00 29 1018.7
20240619025518 65 74 1.0 5.0 0.00 0.00 0.00 30 1018.5
20240619025019 65 58 2.0 4.0 0.00 0.00 0.00 29 1018.4
20240619024518 65 87 1.0 4.0 0.00 0.00 0.00 30 1018.2
20240619024020 66 120 1.0 4.0 0.00 0.00 0.00 29 1018.3
20240619023520 66 122 0.0 3.0 0.00 0.00 0.00 29 1018.3